Dewpoint
18 18 18 19 19 18 18 19 19 18 18 18 18 18 19 20 20 21 22 21 20 19 19 20 21 22 23 27 28 29 30 30 30 30 30 30 31 31 31 31 31 32 32 32 32 33 33 33 33 33 33 33 33 33 33 33 34 34 34 35 35 35 36 36 36 37 37 38 38 39 39 39 39 40 40 40 40 40 40 40 40 40 40 41 41 41
18 19 19 19 19 18 18 18 18 18 18 18 18 18 18 18 18 19 20 20 20 20 21 21 22 22 22 24 27 28 29 29 29 30 30 30 30 30 30 31 31 31 32 32 32 32 32 32 32 32 32 33 33 33 33 33 33 34 34 34 35 35 35 36 36 36 37 37 38 38 38 39 39 39 40 40 40 40 40 40 39 39 39 39 40 40
18 18 18 19 19 18 17 18 18 18 18 18 18 18 18 18 19 19 19 20 21 22 22 22 22 21 21 23 25 27 28 28 29 29 29 29 30 30 30 30 31 31 31 31 32 32 32 32 32 32 32 32 33 33 33 33 33 34 34 34 35 35 35 36 36 36 36 37 37 37 38 38 38 39 40 40 40 41 41 40 40 40 40 40 40 40
18 18 18 18 18 18 18 18 18 18 19 19 19 19 19 19 20 21 21 22 23 23 23 22 20 19 19 20 23 26 27 28 28 28 29 29 29 29 30 30 30 31 31 31 31 32 32 32 32 32 32 32 33 33 33 33 33 34 34 34 35 35 35 36 36 36 36 37 37 37 37 38 38 38 39 39 40 40 41 41 40 40 41 41 41 41
19 19 19 18 18 18 18 18 18 19 20 20 20 20 20 21 22 23 24 24 23 23 21 20 18 18 17 18 21 24 26 27 27 28 28 28 29 29 29 30 30 30 31 31 31 32 32 32 32 32 32 32 33 33 33 33 34 34 34 34 35 35 35 36 36 36 36 37 37 37 37 37 37 38 38 39 39 39 40 40 40 40 41 41 41 41
19 19 19 18 18 18 18 19 19 20 20 20 21 21 22 23 24 24 24 23 23 21 19 18 18 17 17 17 20 23 25 26 27 27 27 28 28 29 29 30 30 30 31 31 31 31 32 32 32 32 32 32 33 33 33 33 34 34 34 34 35 35 35 36 36 36 36 36 36 36 36 36 37 37 37 37 38 38 38 38 38 39 39 40 41 41
19 19 19 19 19 19 19 19 20 20 21 21 22 23 24 25 24 24 23 22 20 19 18 18 17 17 16 17 19 22 23 24 25 26 27 27 28 28 29 29 30 30 30 31 31 31 31 32 32 32 32 32 32 33 33 33 33 33 34 34 34 35 35 35 35 35 35 35 35 35 35 36 36 36 36 36 36 37 37 37 37 37 37 38 38 39
19 19 19 19 19 19 19 20 21 22 23 23 23 24 24 23 23 22 22 22 20 18 16 16 16 16 15 15 17 18 19 20 22 23 24 25 27 27 28 29 30 30 30 31 31 31 31 31 32 32 32 32 32 32 33 33 33 33 33 33 33 33 34 34 34 34 34 34 34 34 34 35 35 35 35 36 36 36 36 36 36 37 37 37 37 38
19 19 19 20 20 20 20 21 22 23 25 25 25 23 22 20 19 18 19 19 18 18 15 14 14 14 15 15 16 17 18 20 20 20 21 22 23 24 27 28 29 29 30 30 30 30 31 31 31 31 32 32 32 32 32 32 32 32 32 32 32 32 32 33 33 33 33 33 34 34 34 34 34 34 35 35 35 35 36 36 36 37 37 38 38 38
21 20 20 21 21 22 23 23 24 26 27 26 24 23 20 18 16 15 15 15 16 16 15 15 15 15 15 16 17 18 19 21 23 24 25 24 25 26 27 27 27 27 29 29 29 30 30 30 30 31 31 31 31 31 31 31 31 31 31 31 31 32 32 32 32 32 33 33 33 33 34 34 34 34 34 34 35 35 35 36 36 36 37 38 38 39
21 21 21 22 23 25 26 26 26 25 25 23 20 18 17 16 15 14 14 14 14 14 15 15 16 16 16 17 17 18 19 20 21 23 26 26 27 27 27 26 26 27 28 28 28 29 29 29 29 30 30 30 30 30 30 30 30 30 30 30 31 31 31 31 32 32 32 32 33 33 33 33 34 34 34 34 34 35 35 35 36 36 36 37 38 38
23 23 24 25 26 26 26 24 23 21 20 18 16 15 14 15 16 16 14 14 14 14 15 16 17 18 18 18 18 18 19 19 19 20 21 22 23 23 23 23 23 24 25 26 27 27 28 28 28 29 29 29 29 29 29 29 29 29 29 30 30 30 30 31 31 31 32 32 32 33 33 33 34 34 34 34 34 35 35 35 35 36 36 37 37 38
26 26 27 27 26 23 21 19 18 16 16 15 14 14 14 14 15 16 16 15 15 15 16 16 17 18 19 19 19 19 19 19 18 18 18 19 19 19 19 19 19 20 21 21 22 23 26 27 27 27 28 27 28 28 28 28 28 29 29 29 29 30 30 30 31 31 31 32 32 33 33 34 34 34 35 35 35 35 35 35 36 36 36 37 37 38
27 27 25 23 21 19 17 16 16 15 15 15 14 14 14 14 15 16 16 15 16 16 17 17 18 18 19 19 20 20 19 18 18 18 18 18 19 20 19 19 19 19 20 19 20 21 24 24 24 25 27 27 27 27 27 27 28 28 28 29 29 29 30 30 31 31 32 32 32 33 34 34 34 35 35 35 35 35 35 36 36 36 36 37 37 37
26 24 22 20 18 18 17 16 16 15 15 15 14 14 15 15 16 16 16 16 17 18 18 19 19 19 19 19 19 19 19 18 18 18 18 18 20 21 21 20 19 20 20 20 20 21 23 23 22 21 22 23 24 24 25 26 27 28 28 29 29 29 30 30 31 31 32 32 33 33 34 34 34 34 35 35 35 35 35 35 36 36 36 36 36 37
23 21 19 19 18 18 17 16 16 15 14 15 15 15 15 15 15 16 17 18 19 19 20 20 20 19 18 19 19 19 19 19 18 18 18 18 19 20 21 20 20 20 20 20 20 20 22 21 20 20 20 22 24 26 27 27 27 28 28 29 29 30 30 31 31 31 32 32 32 33 33 33 34 34 34 34 35 35 35 35 35 35 35 36 36 36
21 20 19 19 18 18 16 16 15 15 15 15 15 15 16 16 17 18 19 20 21 21 21 20 19 18 18 18 18 19 19 19 19 19 19 19 20 21 21 21 21 20 20 19 19 19 19 19 19 20 20 23 25 26 27 27 28 28 29 29 29 30 30 31 31 32 32 32 32 33 33 33 34 34 34 34 34 34 35 35 35 35 35 35 36 36
21 20 20 19 18 16 15 14 14 15 16 15 15 16 17 18 19 20 21 22 22 22 22 20 19 18 17 17 17 18 20 20 20 20 20 20 20 21 22 21 20 19 19 19 19 19 19 19 20 21 21 25 27 27 27 28 28 29 29 29 30 30 30 31 31 32 32 32 33 33 33 33 34 34 34 34 34 34 35 35 35 35 36 36 36 36
20 19 18 17 16 15 15 15 15 15 15 16 17 18 19 20 21 22 23 23 23 22 22 20 19 18 18 17 18 18 20 21 20 20 21 20 20 20 20 20 20 19 18 19 19 19 19 21 23 24 26 27 27 27 27 28 28 28 29 29 29 30 30 31 31 32 32 32 32 33 33 33 33 33 34 34 34 34 35 35 35 35 36 36 36 36
19 18 17 17 16 17 17 17 17 17 18 18 20 21 22 22 23 23 23 23 23 22 21 20 19 18 18 18 18 19 21 21 21 21 21 21 20 20 19 19 19 18 18 18 18 18 19 21 22 23 25 26 27 27 27 27 28 28 28 29 29 29 30 30 31 31 32 32 32 32 32 33 33 33 33 33 34 34 34 34 35 35 35 36 36 36
18 18 18 18 18 18 18 18 18 19 21 23 24 24 24 24 24 24 23 23 22 21 20 20 19 19 19 19 20 21 23 22 22 22 21 20 20 19 19 18 18 18 18 18 19 20 20 20 20 21 23 25 26 27 27 27 28 28 28 29 29 29 30 30 31 31 32 32 32 32 32 33 33 33 33 33 33 33 33 34 34 34 34 35 35 35
18 18 18 18 18 19 20 20 21 23 25 27 27 26 26 26 25 24 23 22 22 21 21 20 20 20 21 21 21 22 23 23 23 22 22 20 19 19 18 19 18 18 18 18 18 19 19 19 19 20 23 25 26 27 27 27 28 28 28 29 29 29 30 30 31 31 31 32 32 32 32 32 33 33 33 33 33 33 33 33 33 34 34 34 34 34
19 18 18 19 19 21 22 23 24 26 27 28 28 28 28 27 26 24 23 23 23 23 23 22 22 22 23 23 23 23 23 22 22 21 21 19 18 18 18 19 18 18 17 18 18 18 18 18 18 19 22 25 26 27 27 27 27 28 28 29 29 29 30 30 31 31 32 32 32 32 32 33 33 33 33 33 33 33 34 34 34 34 34 34 34 34
20 20 20 21 23 25 26 26 27 27 29 30 30 29 29 27 26 25 25 25 25 24 24 23 23 22 22 22 21 21 21 21 20 20 19 19 18 18 18 18 18 17 17 18 18 18 18 18 18 18 20 23 25 26 27 27 27 28 28 29 29 30 30 31 31 32 32 32 32 33 33 33 34 34 34 34 34 34 34 34 34 34 34 34 34 34
22 23 23 24 27 29 28 29 30 31 32 30 29 27 27 27 26 26 26 25 24 23 23 22 21 20 20 20 19 18 19 20 20 19 19 19 18 18 18 18 18 17 17 18 18 18 17 17 18 18 19 22 24 26 27 27 27 28 28 28 29 30 31 31 32 32 32 33 33 33 34 34 34 34 34 34 34 34 34 34 34 34 34 34 34 34
25 26 27 28 30 32 32 33 34 33 32 29 27 25 25 26 26 25 24 23 22 22 21 20 19 19 18 18 18 18 18 19 20 19 19 18 18 18 18 18 18 17 18 18 18 18 17 17 18 18 19 20 23 25 26 27 27 27 28 28 29 30 31 32 32 33 33 33 33 34 34 34 34 34 34 34 34 34 34 34 34 34 34 34 34 34
29 30 32 32 32 32 32 32 31 30 29 28 27 27 26 26 24 23 22 21 21 20 20 19 18 18 18 18 18 18 18 19 19 19 19 19 18 18 18 18 18 18 18 17 17 18 19 18 18 18 19 19 21 23 25 26 27 27 27 28 29 30 31 32 32 32 32 33 33 33 34 34 34 34 35 35 35 34 34 34 34 34 34 34 33 33
31 32 32 31 31 30 29 28 28 27 28 28 28 28 27 25 23 22 21 20 20 20 20 19 18 18 18 17 17 17 18 18 18 18 19 19 18 18 18 18 18 18 17 17 18 19 20 20 19 19 18 19 20 21 23 25 26 27 27 28 29 29 30 30 31 31 31 32 32 32 33 33 34 34 34 35 35 35 35 35 35 35 34 34 33 32
30 29 28 27 27 26 26 26 26 26 27 27 27 27 26 24 23 22 21 21 21 20 20 19 18 18 18 18 17 17 17 17 18 18 19 19 19 18 18 18 18 18 18 18 18 18 18 19 18 18 18 19 20 20 22 24 25 25 26 27 27 28 28 29 29 30 30 31 31 32 32 32 33 33 34 34 35 35 35 35 35 35 35 34 34 33
25 24 23 23 23 23 23 23 23 24 25 26 26 26 25 23 23 22 22 21 21 20 19 19 18 18 18 18 17 17 16 16 18 19 20 20 19 18 18 18 18 18 18 18 18 17 16 17 18 18 18 20 20 20 21 22 23 23 23 25 26 27 27 28 28 29 29 30 31 31 32 32 32 33 33 34 34 34 35 35 35 35 35 35 34 33
21 21 20 21 21 21 21 21 22 22 23 24 24 24 23 22 22 21 21 21 21 21 20 19 19 18 18 18 17 16 15 17 18 20 20 20 19 18 18 18 19 19 19 19 18 16 15 16 17 18 19 20 20 20 21 21 21 21 22 23 24 25 27 27 28 28 29 30 30 31 31 32 32 32 33 33 34 34 34 35 35 35 35 34 33 32
20 20 20 19 19 19 20 20 20 20 21 21 22 22 22 21 21 21 21 21 21 21 21 20 19 19 19 18 18 17 16 17 19 20 21 21 20 20 19 19 19 19 19 19 18 18 16 16 17 18 19 19 20 20 21 21 21 22 22 23 23 24 26 27 28 28 29 29 30 31 31 32 32 32 32 33 33 34 34 34 35 35 34 33 32 31
20 19 19 19 19 19 19 19 19 19 19 19 19 20 20 20 21 21 21 21 21 22 22 21 20 19 19 18 18 18 18 18 19 21 23 22 21 21 20 19 19 19 19 19 19 18 18 17 18 18 18 19 19 20 21 21 22 23 23 23 23 23 25 27 27 27 28 28 29 30 31 31 32 32 32 33 33 33 34 34 34 34 34 33 32 31
20 20 19 19 19 18 18 18 18 18 18 18 19 19 19 19 20 20 21 21 22 22 22 22 21 20 19 18 18 18 18 18 20 22 24 23 22 21 20 19 19 19 19 18 18 18 18 18 18 18 18 18 19 20 20 21 22 23 23 23 23 23 24 25 26 26 27 27 28 28 29 30 31 31 32 32 32 33 33 34 34 34 35 33 32 32
19 19 19 18 18 18 18 18 18 18 18 18 18 18 19 19 19 19 20 21 21 22 22 22 22 21 21 20 19 18 18 18 20 23 24 24 23 22 21 20 19 18 19 18 18 18 18 18 18 18 18 18 19 19 20 21 22 23 23 23 23 23 24 25 25 26 26 27 27 27 27 28 29 30 31 31 32 32 33 33 34 34 35 35 34 33
18 18 18 18 18 18 17 17 17 17 17 17 17 18 18 18 19 19 20 21 21 22 22 22 22 22 22 22 21 20 19 20 21 23 25 25 24 23 22 20 19 19 19 19 19 19 18 18 18 19 19 18 18 18 20 21 22 22 23 23 23 24 24 25 25 26 26 26 27 27 27 28 29 29 30 31 32 33 33 34 34 34 35 35 35 35
18 18 18 18 18 17 17 17 17 17 17 17 17 18 18 18 18 19 19 21 22 22 22 23 23 23 23 23 23 23 23 23 23 24 25 26 25 24 23 21 21 21 21 20 20 19 19 19 18 18 18 18 18 18 19 20 21 22 22 23 23 24 24 25 26 26 26 27 27 27 28 28 29 29 30 32 32 32 33 33 34 34 34 34 35 35
18 18 18 18 17 17 17 17 17 17 17 17 17 18 18 18 19 20 19 21 23 23 22 22 22 23 25 25 26 26 25 25 25 26 26 26 26 25 23 23 22 22 22 22 21 21 20 19 18 18 17 18 18 19 20 20 21 21 22 23 23 24 24 25 26 26 26 27 27 28 28 29 29 29 30 31 31 31 31 32 32 33 33 34 34 34
17 17 18 18 18 17 17 17 17 17 18 18 18 18 18 19 20 20 20 21 21 22 21 21 21 22 24 26 27 27 27 27 27 27 27 27 27 26 24 23 23 22 22 23 23 22 21 20 19 18 18 18 18 19 20 20 21 21 22 23 23 24 24 25 26 26 27 27 27 28 28 28 29 29 29 30 30 31 31 31 31 32 32 32 32 33
18 18 18 18 18 18 17 17 17 17 18 18 19 19 20 20 20 20 20 20 20 20 21 21 22 22 23 23 24 25 26 27 28 28 28 28 27 27 25 24 23 23 23 23 23 23 22 21 20 20 20 19 19 20 20 21 21 22 23 23 23 23 24 25 26 26 27 27 27 27 28 28 29 29 30 30 31 31 31 31 31 32 32 32 32 32
18 18 18 18 18 18 18 18 18 18 18 18 19 19 19 20 20 20 19 20 20 21 21 21 22 22 22 23 23 23 24 26 27 27 28 28 28 27 26 25 25 24 24 23 23 23 23 22 22 21 21 21 21 21 21 21 22 23 23 23 23 23 24 26 26 26 27 27 27 28 28 29 29 29 30 31 32 32 32 33 32 32 33 33 32 32
18 18 18 17 17 17 17 17 18 19 19 19 19 19 19 20 20 20 20 20 21 21 21 21 21 21 21 21 22 23 23 25 26 27 28 28 28 28 27 27 26 25 25 24 23 23 23 23 23 23 22 22 22 21 21 22 22 23 23 23 23 24 25 26 26 26 27 27 27 28 29 29 29 29 30 31 32 33 35 35 35 34 34 34 34 33
18 18 18 17 17 17 18 18 19 19 19 18 18 18 19 20 20 21 21 21 21 21 21 21 21 21 21 21 21 22 23 25 26 26 27 28 28 28 27 27 27 26 26 25 24 23 23 24 23 23 23 23 23 23 22 22 23 23 23 24 24 24 24 24 25 26 27 27 28 28 29 29 30 31 32 33 34 34 35 35 35 36 36 35 35 35
18 18 18 18 18 18 19 18 18 18 18 18 18 19 19 20 20 21 22 21 22 22 22 22 21 21 21 20 20 21 21 23 24 25 25 27 27 28 28 27 27 27 27 27 25 24 24 23 23 23 23 23 23 23 23 23 23 23 23 24 25 25 24 25 26 27 27 27 28 28 29 31 32 32 32 33 33 33 34 34 34 35 36 36 36 36
18 18 18 18 18 18 18 18 18 18 18 18 19 19 20 20 21 22 22 22 22 22 22 22 21 21 20 20 20 20 21 21 22 23 24 25 27 27 28 28 28 28 28 27 27 26 25 24 23 23 23 24 23 23 23 23 23 23 24 25 25 26 26 27 27 27 27 27 28 28 30 32 32 32 30 30 31 32 32 32 33 34 35 36 36 36
18 18 18 18 18 18 18 18 18 18 19 19 19 20 20 20 21 21 22 22 22 22 22 22 21 20 19 19 19 20 20 21 21 22 22 23 24 26 27 27 27 27 27 27 27 27 26 25 25 24 24 24 23 23 23 23 23 24 24 25 26 26 26 27 27 27 27 28 28 29 30 32 32 31 29 28 29 29 30 32 33 34 35 36 36 36
18 18 18 18 18 18 18 18 18 18 18 19 19 19 20 20 21 21 21 22 22 22 22 21 21 20 19 19 20 20 20 20 21 21 22 22 23 24 25 26 27 27 27 27 27 27 27 27 27 26 25 24 23 23 23 24 24 24 24 25 25 26 26 27 27 27 28 28 29 29 31 31 30 29 28 28 28 29 30 32 33 35 35 36 36 36
18 18 18 18 18 18 18 18 18 18 18 18 19 19 20 20 21 21 21 21 21 21 21 21 20 20 19 20 20 20 20 21 21 22 22 22 23 23 24 25 25 26 27 27 27 27 26 27 27 27 26 25 24 23 23 24 24 25 25 25 26 26 26 27 27 28 28 29 30 31 31 31 30 29 28 28 28 28 29 32 33 34 35 36 36 36
18 18 18 18 18 18 18 18 18 18 18 18 19 19 19 20 21 22 21 21 21 21 21 20 20 20 19 19 20 20 21 21 21 22 22 22 23 23 24 24 25 25 25 25 25 25 25 27 27 27 27 26 25 25 24 25 25 25 25 26 26 27 27 27 27 27 28 29 30 31 31 31 30 30 30 29 28 27 27 30 32 33 34 35 35 36
18 18 18 18 18 18 18 18 18 18 18 18 19 19 19 20 20 20 21 21 21 21 20 20 20 20 20 20 20 20 21 21 21 22 22 23 23 23 24 24 24 24 24 23 23 23 23 24 25 26 27 27 27 27 26 26 26 26 26 26 26 27 27 27 27 27 28 28 29 31 31 31 31 30 30 28 28 27 27 28 29 31 32 33 35 36
18 18 18 18 18 18 18 18 18 18 18 19 19 19 19 19 20 20 20 21 21 20 20 21 21 20 20 20 21 21 21 22 22 22 22 23 23 23 24 24 24 24 23 23 22 22 21 21 21 22 23 25 27 27 26 26 26 25 25 26 26 27 27 27 27 27 28 28 29 30 30 30 30 29 28 28 27 27 27 27 27 29 31 32 34 35